Weather History for Salisbury, MD

Change the Weather History Date:

Tuesday, May 21, 2013

  Actual Average Record
Temperature  
Mean Temperature 75 °F 64 °F  
Max Temperature 83 °F 75 °F 93 °F (1934)
Min Temperature 66 °F 53 °F 31 °F (2002)
Degree Days  
Heating Degree Days 0 4  
Month to date heating degree days 95 115  
Since 1 July heating degree days 3843 4395  
Cooling Degree Days 10 3  
Month to date cooling degree days 71 32  
Year to date cooling degree days 117 49  
Growing Degree Days 24 (Base 50)    
Moisture  
Dew Point 66 °F    
Average Humidity 74    
Maximum Humidity 90    
Minimum Humidity 58    
Precipitation  
Precipitation 0.00 in 0.13 in 1.00 in (1946)
Month to date precipitation 2.74 2.34  
Year to date precipitation 18.07 17.27  
Snow  
Snow 0.00 in 0.00 in 0.00 in (2002)
Month to date snowfall 0.0 0.0  
Since 1 July snowfall 2.8 9.3  
Snow Depth 0.00 in    
Sea Level Pressure  
Sea Level Pressure 29.99 in    
Wind  
Wind Speed 7 mph (SSW)    
Max Wind Speed 16 mph    
Max Gust Speed 22 mph    
Visibility 10 miles    
Events      
T = Trace of Precipitation, MM = Missing Value Source: NWS Daily Summary

Daily Weather History Graph

Daily Weather History Graph

Search for Another Location

Airport:

Trip Planner

Search our weather history database for the weather conditions in past years. The results will help you decide how hot, cold, wet, or windy it might be!

Date:

Astronomy

May. 21, 2013 Rise Set
Actual Time 5:46 AM EDT 8:11 PM EDT
Civil Twilight 5:15 AM EDT 8:42 PM EDT
Nautical Twilight 4:38 AM EDT 9:19 PM EDT
Astronomical Twilight 3:57 AM EDT 10:01 PM EDT
Moon 4:25 PM EDT 3:09 AM EDT
Length of Visible Light 15h 26m
Length of Day
14h 25m
Waxing Gibbous, 84% of the Moon is Illuminated
May 21
Waxing Gibbous
May 25
Full
May 31
Last Quarter
Jun 8
New
Jun 16
First Quarter

Hourly Weather History & Observations

Time (EDT) Temp. Heat Index Dew Point Humidity Pressure Visibility Wind Dir Wind Speed Gust Speed Precip Events Conditions
12:54 AM 66.9 °F - 63.0 °F 87% 30.04 in 10.0 mi Calm Calm - N/A   Clear
1:54 AM 68.0 °F - 64.0 °F 87% 30.02 in 7.0 mi Calm Calm - N/A   Clear
2:54 AM 68.0 °F - 64.0 °F 87% 30.00 in 5.0 mi SSW 4.6 mph - N/A   Clear
3:54 AM 69.1 °F - 66.0 °F 90% 30.00 in 7.0 mi SSW 4.6 mph - N/A   Mostly Cloudy
4:45 AM 69.8 °F - 66.2 °F 88% 29.99 in 10.0 mi South 8.1 mph - N/A   Scattered Clouds
4:54 AM 70.0 °F - 66.0 °F 87% 30.00 in 10.0 mi SSW 6.9 mph - N/A   Partly Cloudy
5:15 AM 69.8 °F - 66.2 °F 88% 29.99 in 10.0 mi South 4.6 mph - N/A   Mostly Cloudy
5:54 AM 71.1 °F - 66.9 °F 87% 30.01 in 10.0 mi North - - N/A   Overcast
6:17 AM 71.6 °F - 66.2 °F 83% 30.01 in 10.0 mi Calm Calm - N/A   Overcast
6:54 AM 71.1 °F - 66.9 °F 87% 30.03 in 10.0 mi SSW 6.9 mph - N/A   Overcast
7:04 AM 71.6 °F - 66.2 °F 83% 30.02 in 10.0 mi SSW 8.1 mph - N/A   Overcast
7:35 AM 71.6 °F - 66.2 °F 83% 30.03 in 10.0 mi SSW 6.9 mph - N/A   Overcast
7:54 AM 72.0 °F - 66.9 °F 84% 30.04 in 10.0 mi SW 5.8 mph - N/A   Overcast
8:34 AM 71.6 °F - 66.2 °F 83% 30.04 in 10.0 mi WSW 11.5 mph - N/A   Overcast
8:46 AM 73.4 °F - 66.2 °F 78% 30.03 in 10.0 mi SW 6.9 mph - N/A   Overcast
8:54 AM 73.0 °F - 66.9 °F 81% 30.04 in 10.0 mi SW 8.1 mph - N/A   Overcast
9:01 AM 73.4 °F - 66.2 °F 78% 30.03 in 10.0 mi SSW 9.2 mph - N/A   Overcast
9:09 AM 73.4 °F - 66.2 °F 78% 30.03 in 10.0 mi SW 8.1 mph - N/A   Overcast
9:54 AM 77.0 °F - 66.9 °F 71% 30.02 in 10.0 mi SSW 6.9 mph - N/A   Mostly Cloudy
10:54 AM 78.1 °F - 66.9 °F 68% 30.01 in 10.0 mi WSW 8.1 mph - N/A   Overcast
11:54 AM 80.1 °F 82.3 °F 66.9 °F 64% 30.01 in 10.0 mi SSW 9.2 mph - N/A   Overcast
12:30 PM 80.6 °F 82.7 °F 66.2 °F 61% 30.00 in 10.0 mi SW 11.5 mph - N/A   Mostly Cloudy
12:54 PM 81.0 °F 83.8 °F 68.0 °F 65% 30.00 in 10.0 mi SSW 12.7 mph 20.7 mph N/A   Scattered Clouds
1:54 PM 80.1 °F 82.3 °F 66.9 °F 64% 29.99 in 10.0 mi SW 5.8 mph - N/A   Overcast
2:08 PM 80.6 °F 82.7 °F 66.2 °F 61% 29.97 in 10.0 mi SSW 10.4 mph - N/A   Overcast
2:54 PM 82.0 °F 84.5 °F 66.9 °F 60% 29.97 in 10.0 mi WSW 6.9 mph - N/A   Mostly Cloudy
3:54 PM 82.9 °F 85.4 °F 66.9 °F 58% 29.97 in 10.0 mi SW 10.4 mph - N/A   Mostly Cloudy
4:07 PM 80.6 °F 82.7 °F 66.2 °F 61% 29.95 in 10.0 mi South 10.4 mph - N/A   Mostly Cloudy
4:54 PM 82.0 °F 84.1 °F 66.0 °F 58% 29.96 in 10.0 mi SW 9.2 mph - N/A   Overcast
5:54 PM 82.0 °F 84.1 °F 66.0 °F 58% 29.93 in 10.0 mi SSW 10.4 mph - N/A   Clear
6:54 PM 80.1 °F 82.3 °F 66.9 °F 64% 29.93 in 10.0 mi SSW 9.2 mph - N/A   Clear
7:54 PM 78.1 °F - 66.9 °F 68% 29.94 in 10.0 mi South 8.1 mph - N/A   Clear
8:54 PM 73.9 °F - 68.0 °F 82% 29.94 in 10.0 mi South 4.6 mph - N/A   Clear
9:54 PM 72.0 °F - 66.9 °F 84% 29.93 in 10.0 mi Calm Calm - N/A   Clear
10:54 PM 72.0 °F - 66.9 °F 84% 29.93 in 10.0 mi South 3.5 mph - N/A   Clear
11:54 PM 72.0 °F - 66.9 °F 84% 29.93 in 8.0 mi South 5.8 mph - N/A   Clear